 day,  time,  air_temp(C),  RH(%),  ground_temp10cm(C),  ground_temp20cm(C),  ground_temp40cm(C),  precipitation(mm/h),  Solar_Radiation(MJ/m2h),  lack, 
 03/03/01, 01:00,  -2.1,  75,   0.6,   1.0,   2.0,   0.0,  0.00, 
 03/03/01, 02:00,  -1.2,  73,   0.6,   1.0,   2.0,   0.0,  0.00, 
 03/03/01, 03:00,  -0.3,  78,   0.6,   1.1,   2.0,   0.0,  0.00, 
 03/03/01, 04:00,   1.0,  80,   0.6,   1.0,   2.0,   0.0,  0.00, 
 03/03/01, 05:00,   1.7,  85,   0.6,   1.0,   2.0,   0.0,  0.00, 
 03/03/01, 06:00,   2.5,  85,   0.6,   1.0,   2.0,   0.0,  0.00, 
 03/03/01, 07:00,   1.2,  89,   0.6,   1.0,   2.0,   0.0,  0.00, 
 03/03/01, 08:00,   2.0,  97,   0.6,   1.0,   2.0,   0.0,  0.00, 
 03/03/01, 09:00,   2.3,  98,   0.6,   1.0,   2.0,   0.0,  0.24, 
 03/03/01, 10:00,   2.4,  99,   0.6,   1.0,   2.0,   0.5,  0.45, 
 03/03/01, 11:00,   1.4,  99,   0.6,   1.0,   2.0,   1.0,  0.48, 
 03/03/01, 12:00,   1.6,  99,   0.6,   1.0,   2.0,   1.5,  0.39, 
 03/03/01, 13:00,   2.1,  99,   0.6,   1.0,   2.0,   1.5,  0.39, 
 03/03/01, 14:00,   2.2,  99,   0.6,   1.0,   2.0,   2.0,  0.33, 
 03/03/01, 15:00,   2.2,  96,   0.6,   1.0,   2.0,   2.5,  0.23, 
 03/03/01, 16:00,   2.0,  97,   0.6,   1.0,   2.0,   3.0,  0.08, 
 03/03/01, 17:00,   2.6,  96,   0.6,   1.0,   2.0,   4.0,  0.00, 
 03/03/01, 18:00,   4.2,  92,   0.6,   1.0,   2.0,   4.0,  0.00, 
 03/03/01, 19:00,   5.0,  93,   0.6,   1.0,   2.0,   4.0,  0.00, 
 03/03/01, 20:00,   3.1,  99,   0.6,   1.0,   2.0,   5.5,  0.00, 
 03/03/01, 21:00,   3.8,  99,   0.5,   1.0,   2.0,   5.0,  0.00, 
 03/03/01, 22:00,   1.1,  98,   0.5,   0.9,   1.9,   5.0,  0.00, 
 03/03/01, 23:00,   0.5,  99,   0.5,   1.0,   1.9,   3.5,  0.00, 
 03/03/02, 00:00,   0.0,  99,   0.5,   1.0,   1.9,   3.0,  0.00, 
 03/03/02, 01:00,  -1.1,  99,   0.5,   1.0,   1.9,   0.5,  0.00, 
 03/03/02, 02:00,  -1.7,  97,   0.5,   0.9,   1.9,   0.5,  0.00, 
 03/03/02, 03:00,  -2.6,  95,   0.5,   0.9,   1.8,   1.0,  0.00, 
 03/03/02, 04:00,  -2.8,  97,   0.5,   1.0,   1.8,   2.0,  0.00, 
 03/03/02, 05:00,  -2.9,  95,   0.5,   0.9,   1.8,   1.5,  0.00, 
 03/03/02, 06:00,  -3.1,  95,   0.5,   0.8,   1.8,   2.0,  0.00, 
 03/03/02, 07:00,  -3.1,  97,   0.5,   0.9,   1.8,   2.5,  0.00, 
 03/03/02, 08:00,  -4.2,  92,   0.5,   0.8,   1.8,   0.5,  0.05, 
 03/03/02, 09:00,  -4.6,  92,   0.5,   0.8,   1.8,   0.0,  0.24, 
 03/03/02, 10:00,  -4.0,  90,   0.5,   0.8,   1.8,   0.0,  1.12, 
 03/03/02, 11:00,  -3.2,  81,   0.5,   0.9,   1.8,   0.0,  1.16, 
 03/03/02, 12:00,  -1.7,  83,   0.5,   0.9,   1.8,   0.0,  1.19, 
 03/03/02, 13:00,  -1.0,  76,   0.5,   0.9,   1.8,   0.0,  1.14, 
 03/03/02, 14:00,  -0.4,  63,   0.5,   0.9,   1.8,   0.5,  1.08, 
 03/03/02, 15:00,   0.0,  61,   0.5,   0.9,   1.8,   0.0,  1.07, 
 03/03/02, 16:00,  -0.7,  62,   0.5,   0.9,   1.8,   0.0,  1.05, 
 03/03/02, 17:00,  -1.4,  61,   0.5,   0.9,   1.8,   0.0,  0.62, 
 03/03/02, 18:00,  -1.1,  55,   0.5,   0.9,   1.8,   0.0,  0.19, 
 03/03/02, 19:00,  -4.0,  85,   0.5,   0.8,   1.8,   0.0,  0.00, 
 03/03/02, 20:00,  -4.0,  77,   0.5,   0.8,   1.8,   0.0,  0.00, 
 03/03/02, 21:00,  -0.4,  35,   0.5,   0.8,   1.8,   0.0,  0.00, 
 03/03/02, 22:00,  -3.2,  66,   0.5,   0.8,   1.8,   0.0,  0.00, 
 03/03/02, 23:00,  -0.7,  41,   0.5,   0.8,   1.8,   0.0,  0.00, 
 03/03/03, 00:00,  -0.7,  40,   0.5,   0.8,   1.8,   0.0,  0.00, 
 03/03/03, 01:00,  -1.7,  45,   0.5,   0.8,   1.8,   0.0,  0.00, 
 03/03/03, 02:00,  -1.2,  38,   0.5,   0.9,   1.8,   0.0,  0.00, 
 03/03/03, 03:00,  -0.7,  44,   0.5,   0.8,   1.8,   0.0,  0.00, 
 03/03/03, 04:00,   0.0,  54,   0.5,   0.9,   1.8,   0.0,  0.00, 
 03/03/03, 05:00,   0.5,  61,   0.5,   0.9,   1.8,   0.0,  0.00, 
 03/03/03, 06:00,   1.0,  61,   0.5,   0.9,   1.8,   0.0,  0.00, 
 03/03/03, 07:00,   1.4,  63,   0.5,   0.9,   1.7,   0.0,  0.00, 
 03/03/03, 08:00,   0.9,  77,   0.5,   0.9,   1.8,   0.0,  0.04, 
 03/03/03, 09:00,   1.4,  77,   0.5,   0.9,   1.8,   0.0,  0.26, 
 03/03/03, 10:00,   0.5,  97,   0.5,   0.9,   1.8,   0.0,  0.28, 
 03/03/03, 11:00,   0.7,  97,   0.5,   1.0,   1.8,   1.0,  0.21, 
 03/03/03, 12:00,   0.8,  99,   0.5,   1.0,   1.8,   1.0,  0.16, 
 03/03/03, 13:00,   0.8,  99,   0.5,   1.0,   1.8,   1.5,  0.16, 
 03/03/03, 14:00,   1.7,  99,   0.5,   1.0,   1.8,   2.0,  0.16, 
 03/03/03, 15:00,   0.3,  99,   0.5,   1.0,   1.8,   3.0,  0.09, 
 03/03/03, 16:00,   0.0,  99,   0.5,   1.0,   1.8,   2.5,  0.00, 
 03/03/03, 17:00,   0.0,  99,   0.5,   1.0,   1.8,   1.0,  0.00, 
 03/03/03, 18:00,  -0.5,  99,   0.5,   1.0,   1.8,   0.0,  0.00, 
 03/03/03, 19:00,  -2.1,  99,   0.5,   1.0,   1.8,   0.5,  0.00, 
 03/03/03, 20:00,  -3.9,  94,   0.5,   1.0,   1.8,   0.0,  0.00, 
 03/03/03, 21:00,  -4.8,  95,   0.5,   1.0,   1.8,   0.0,  0.00, 
 03/03/03, 22:00,  -5.8,  94,   0.5,   0.9,   1.8,   0.0,  0.00, 
 03/03/03, 23:00,  -6.4,  91,   0.5,   0.9,   1.8,   0.0,  0.00, 
 03/03/04, 00:00,  -7.5,  92,   0.5,   1.0,   1.8,   0.0,  0.00, 
 03/03/04, 01:00,  -8.5,  88,   0.5,   0.9,   1.8,   0.5,  0.00, 
 03/03/04, 02:00,  -9.3,  86,   0.5,   1.0,   1.8,   0.0,  0.00, 
 03/03/04, 03:00,  -9.9,  87,   0.5,   1.0,   1.8,   0.0,  0.00, 
 03/03/04, 04:00, -10.2,  90,   0.5,   0.9,   1.8,   0.0,  0.00, 
 03/03/04, 05:00, -10.8,  90,   0.5,   0.9,   1.8,   1.0,  0.00, 
 03/03/04, 06:00, -11.3,  91,   0.5,   0.9,   1.7,   0.5,  0.00, 
 03/03/04, 07:00, -11.2,  90,   0.5,   0.9,   1.7,   0.0,  0.00, 
 03/03/04, 08:00, -11.3,  93,   0.5,   0.9,   1.8,   0.0,  0.08, 
 03/03/04, 09:00, -11.0,  90,   0.4,   0.9,   1.7,   0.0,  0.22, 
 03/03/04, 10:00, -10.9,  96,   0.5,   0.9,   1.7,   0.0,  0.34, 
 03/03/04, 11:00, -10.7,  96,   0.5,   0.9,   1.7,   1.0,  0.56, 
 03/03/04, 12:00,  -6.2,  76,   0.5,   1.0,   1.8,   3.0,  0.88, 
 03/03/04, 13:00,  -8.6,  84,   0.6,   0.9,   1.8,   1.5,  0.53, 
 03/03/04, 14:00,  -8.6,  91,   0.6,   0.9,   1.8,   1.5,  0.52, 
 03/03/04, 15:00,  -8.9,  88,   0.6,   0.9,   1.8,   1.0,  0.50, 
 03/03/04, 16:00,  -9.0,  87,   0.6,   0.9,   1.8,   0.0,  0.37, 
 03/03/04, 17:00, -10.0,  85,   0.6,   0.9,   1.8,   1.0,  0.10, 
 03/03/04, 18:00, -10.9,  86,   0.6,   1.0,   1.8,   0.0,  0.04, 
 03/03/04, 19:00, -10.9,  88,   0.6,   1.0,   1.8,   0.0,  0.00, 
 03/03/04, 20:00, -11.0,  87,   0.6,   0.9,   1.8,   0.5,  0.00, 
 03/03/04, 21:00, -10.9,  88,   0.6,   0.9,   1.8,   0.0,  0.00, 
 03/03/04, 22:00, -11.1,  86,   0.6,   0.9,   1.8,   0.0,  0.00, 
 03/03/04, 23:00, -11.2,  88,   0.6,   0.9,   1.8,   0.0,  0.00, 
 03/03/05, 00:00, -11.3,  90,   0.6,   0.9,   1.8,   0.0,  0.00, 
 03/03/05, 01:00, -11.5,  89,   0.6,   1.0,   1.8,   0.5,  0.00, 
 03/03/05, 02:00, -11.7,  87,   0.6,   0.9,   1.8,   0.0,  0.00, 
 03/03/05, 03:00, -11.9,  86,   0.6,   0.9,   1.8,   0.0,  0.00, 
 03/03/05, 04:00, -12.6,  87,   0.6,   0.9,   1.8,   0.0,  0.00, 
 03/03/05, 05:00, -13.6,  88,   0.6,   0.9,   1.8,   0.0,  0.00, 
 03/03/05, 06:00, -12.1,  84,   0.6,   0.9,   1.7,   0.0,  0.00, 
 03/03/05, 07:00, -12.3,  86,   0.6,   0.9,   1.8,   0.0,  0.00, 
 03/03/05, 08:00, -11.3,  89,   0.6,   0.9,   1.8,   0.0,  0.17, 
 03/03/05, 09:00,  -9.4,  80,   0.6,   0.9,   1.8,   0.0,  0.63, 
 03/03/05, 10:00,  -7.0,  96,   0.6,   1.0,   1.8,   0.0,  1.16, 
 03/03/05, 11:00,  -6.0,  87,   0.7,   1.0,   1.8,   0.0,  1.31, 
 03/03/05, 12:00,  -4.8,  89,   0.7,   1.0,   1.8,   0.0,  1.30, 
 03/03/05, 13:00,  -4.7,  79,   0.7,   1.0,   1.8,   0.0,  1.18, 
 03/03/05, 14:00,  -5.0,  81,   0.7,   1.0,   1.8,   0.0,  1.01, 
 03/03/05, 15:00,  -5.7,  82,   0.7,   1.0,   1.8,   0.0,  0.47, 
 03/03/05, 16:00,  -5.6,  83,   0.7,   1.0,   1.8,   0.0,  0.35, 
 03/03/05, 17:00,  -6.3,  91,   0.7,   1.0,   1.8,   0.0,  0.16, 
 03/03/05, 18:00,  -7.1,  92,   0.7,   1.0,   1.8,   0.0,  0.02, 
 03/03/05, 19:00,  -7.6,  93,   0.7,   1.0,   1.8,   0.0,  0.00, 
 03/03/05, 20:00,  -8.3,  92,   0.7,   1.0,   1.8,   0.0,  0.00, 
 03/03/05, 21:00,  -8.7,  88,   0.7,   1.0,   1.8,   0.0,  0.00, 
 03/03/05, 22:00, -10.4,  87,   0.7,   1.0,   1.8,   0.0,  0.00, 
 03/03/05, 23:00,  -9.3,  85,   0.7,   1.0,   1.8,   0.0,  0.00, 
 03/03/06, 00:00,  -9.0,  84,   0.7,   1.0,   1.8,   0.0,  0.00, 
 03/03/06, 01:00,  -8.6,  85,   0.7,   1.0,   1.8,   0.0,  0.00, 
 03/03/06, 02:00,  -8.0,  84,   0.7,   1.0,   1.8,   0.0,  0.00, 
 03/03/06, 03:00,  -8.3,  86,   0.7,   1.0,   1.8,   0.0,  0.00, 
 03/03/06, 04:00,  -8.5,  85,   0.7,   1.0,   1.8,   0.0,  0.00, 
 03/03/06, 05:00,  -7.9,  86,   0.7,   1.0,   1.8,   0.0,  0.00, 
 03/03/06, 06:00,  -8.0,  86,   0.7,   1.0,   1.8,   0.0,  0.00, 
 03/03/06, 07:00,  -7.2,  87,   0.7,   1.0,   1.8,   0.0,  0.02, 
 03/03/06, 08:00,  -5.8,  89,   0.7,   1.0,   1.8,   0.0,  0.26, 
 03/03/06, 09:00,  -3.7,  69,   0.7,   1.0,   1.8,   0.0,  0.95, 
 03/03/06, 10:00,  -1.4,  75,   0.7,   1.0,   1.9,   0.0,  1.14, 
 03/03/06, 11:00,  -0.6,  69,   0.7,   1.0,   1.9,   0.0,  1.06, 
 03/03/06, 12:00,   0.0,  74,   0.7,   1.1,   2.0,   0.0,  1.13, 
 03/03/06, 13:00,   0.1,  75,   0.7,   1.1,   2.0,   0.0,  0.90, 
 03/03/06, 14:00,   0.3,  87,   0.7,   1.1,   2.0,   0.0,  1.49, 
 03/03/06, 15:00,   0.3,  85,   0.7,   1.1,   2.0,   0.0,  1.29, 
 03/03/06, 16:00,   0.4,  86,   0.7,   1.1,   2.0,   0.5,  0.86, 
 03/03/06, 17:00,   0.0,  84,   0.7,   1.1,   2.0,   0.0,  0.27, 
 03/03/06, 18:00,  -0.6,  96,   0.7,   1.1,   1.9,   0.0,  0.00, 
 03/03/06, 19:00,  -0.5,  99,   0.7,   1.1,   1.9,   0.5,  0.00, 
 03/03/06, 20:00,  -0.5,  98,   0.7,   1.1,   1.9,   0.5,  0.00, 
 03/03/06, 21:00,  -0.3,  97,   0.7,   1.1,   1.9,   0.0,  0.00, 
 03/03/06, 22:00,   0.4,  94,   0.7,   1.1,   1.9,   0.0,  0.00, 
 03/03/06, 23:00,   0.7,  91,   0.7,   1.1,   2.0,   0.0,  0.00, 
 03/03/07, 00:00,   1.1,  90,   0.7,   1.1,   1.9,   0.0,  0.00, 
 03/03/07, 01:00,   2.4,  81,   0.7,   1.1,   2.0,   0.5,  0.00, 
 03/03/07, 02:00,   2.2,  86,   0.7,   1.1,   1.9,   0.5,  0.00, 
 03/03/07, 03:00,   2.6,  87,   0.7,   1.1,   1.9,   0.0,  0.00, 
 03/03/07, 04:00,   3.4,  80,   0.7,   1.1,   1.9,   0.5,  0.00, 
 03/03/07, 05:00,   4.1,  75,   0.7,   1.1,   1.9,   0.0,  0.00, 
 03/03/07, 06:00,   3.5,  82,   0.7,   1.1,   1.9,   0.0,  0.00, 
 03/03/07, 07:00,   2.9,  94,   0.7,   1.1,   1.9,   1.5,  0.00, 
 03/03/07, 08:00,   2.6,  97,   0.7,   1.1,   2.0,   1.0,  0.09, 
 03/03/07, 09:00,   1.8,  99,   0.7,   1.1,   1.9,   0.5,  0.33, 
 03/03/07, 10:00,   1.5,  98,   0.7,   1.1,   2.0,   0.0,  0.30, 
 03/03/07, 11:00,   3.8,  88,   0.7,   1.1,   1.9,   0.0,  0.36, 
 03/03/07, 12:00,   2.1,  97,   0.7,   1.1,   2.0,   0.0,  0.38, 
 03/03/07, 13:00,   1.0,  99,   0.7,   1.1,   2.0,   1.0,  0.37, 
 03/03/07, 14:00,   1.1,  99,   0.7,   1.1,   2.0,   1.0,  0.37, 
 03/03/07, 15:00,   1.0,  99,   0.7,   1.0,   2.0,   1.5,  0.39, 
 03/03/07, 16:00,   0.4,  99,   0.7,   1.0,   2.0,   2.0,  0.18, 
 03/03/07, 17:00,   0.7,  99,   0.7,   1.0,   1.9,   1.5,  0.02, 
 03/03/07, 18:00,   0.7,  97,   0.7,   1.0,   1.9,   0.5,  0.00, 
 03/03/07, 19:00,   0.4,  93,   0.7,   1.0,   1.8,   0.0,  0.00, 
 03/03/07, 20:00,  -0.3,  96,   0.7,   1.0,   1.8,   0.0,  0.00, 
 03/03/07, 21:00,  -1.1,  99,   0.7,   1.0,   1.8,   0.0,  0.00, 
 03/03/07, 22:00,  -2.1,  98,   0.7,   1.0,   1.8,   0.5,  0.00, 
 03/03/07, 23:00,  -2.3,  97,   0.7,   1.0,   1.8,   0.5,  0.00, 
 03/03/08, 00:00,  -2.8,  93,   0.7,   1.0,   1.8,   0.5,  0.00, 
 03/03/08, 01:00,  -3.3,  95,   0.7,   1.0,   1.8,   0.0,  0.00, 
 03/03/08, 02:00,  -3.7,  92,   0.7,   1.0,   1.8,   0.5,  0.00, 
 03/03/08, 03:00,  -4.0,  92,   0.7,   1.0,   1.8,   0.0,  0.00, 
 03/03/08, 04:00,  -4.4,  94,   0.7,   1.0,   1.8,   0.5,  0.00, 
 03/03/08, 05:00,  -4.8,  90,   0.6,   1.0,   1.8,   0.5,  0.00, 
 03/03/08, 06:00,  -5.0,  90,   0.6,   1.0,   1.8,   0.0,  0.00, 
 03/03/08, 07:00,  -5.1,  92,   0.6,   1.0,   1.8,   0.5,  0.00, 
 03/03/08, 08:00,  -5.1,  91,   0.6,   1.0,   1.8,   0.0,  0.12, 
 03/03/08, 09:00,  -4.6,  87,   0.6,   1.0,   1.8,   0.0,  0.43, 
 03/03/08, 10:00,  -3.8,  96,   0.6,   1.0,   1.8,   0.0,  0.52, 
 03/03/08, 11:00,  -4.0,  91,   0.6,   1.0,   1.8,   0.5,  0.51, 
 03/03/08, 12:00,  -3.5,  94,   0.6,   1.0,   1.8,   0.5,  0.44, 
 03/03/08, 13:00,  -3.3,  96,   0.6,   1.0,   1.8,   1.5,  0.53, 
 03/03/08, 14:00,  -3.5,  92,   0.6,   1.0,   1.8,   0.5,  0.45, 
 03/03/08, 15:00,  -3.7,  92,   0.6,   1.0,   1.8,   0.5,  0.39, 
 03/03/08, 16:00,  -3.9,  93,   0.6,   1.0,   1.8,   0.5,  0.34, 
 03/03/08, 17:00,  -4.3,  92,   0.6,   1.0,   1.8,   1.0,  0.18, 
 03/03/08, 18:00,  -4.6,  89,   0.6,   1.0,   1.8,   0.0,  0.00, 
 03/03/08, 19:00,  -4.9,  94,   0.6,   1.0,   1.8,   1.0,  0.00, 
 03/03/08, 20:00,  -5.1,  93,   0.6,   1.0,   1.8,   0.0,  0.00, 
 03/03/08, 21:00,  -5.4,  93,   0.6,   1.0,   1.8,   1.0,  0.00, 
 03/03/08, 22:00,  -5.4,  96,   0.6,   1.0,   1.8,   0.0,  0.00, 
 03/03/08, 23:00,  -5.7,  96,   0.6,   1.0,   1.8,   1.0,  0.00, 
 03/03/09, 00:00,  -6.1,  93,   0.6,   1.0,   1.8,   0.0,  0.00, 
 03/03/09, 01:00,  -6.5,  94,   0.6,   1.0,   1.8,   0.5,  0.00, 
 03/03/09, 02:00,  -6.9,  91,   0.6,   1.0,   1.8,   0.0,  0.00, 
 03/03/09, 03:00,  -7.4,  95,   0.6,   1.0,   1.8,   0.5,  0.00, 
 03/03/09, 04:00,  -7.9,  90,   0.6,   1.0,   1.8,   0.0,  0.00, 
 03/03/09, 05:00,  -8.1,  93,   0.6,   1.0,   1.8,   0.0,  0.00, 
 03/03/09, 06:00,  -8.4,  92,   0.6,   1.0,   1.8,   1.0,  0.00, 
 03/03/09, 07:00,  -8.5,  94,   0.6,   1.0,   1.8,   0.5,  0.00, 
 03/03/09, 08:00,  -7.9,  95,   0.6,   1.0,   1.8,   0.0,  0.20, 
 03/03/09, 09:00,  -7.5,  90,   0.6,   1.0,   1.8,   0.5,  0.35, 
 03/03/09, 10:00,  -7.2,  89,   0.6,   1.0,   1.8,   0.0,  0.75, 
 03/03/09, 11:00,  -6.5,  91,   0.6,   1.0,   1.8,   0.0,  1.08, 
 03/03/09, 12:00,  -6.5,  91,   0.6,   1.0,   1.8,   0.0,  1.01, 
 03/03/09, 13:00,  -6.4,  88,   0.6,   1.0,   1.8,   0.5,  0.64, 
 03/03/09, 14:00,  -6.2,  84,   0.6,   1.0,   1.8,   0.0,  0.75, 
 03/03/09, 15:00,  -5.8,  80,   0.6,   1.0,   1.8,   0.0,  1.45, 
 03/03/09, 16:00,  -6.2,  78,   0.6,   1.0,   1.8,   0.0,  1.35, 
 03/03/09, 17:00,  -7.5,  80,   0.6,   1.0,   1.8,   0.0,  1.21, 
 03/03/09, 18:00,  -8.3,  84,   0.6,   1.0,   1.8,   0.0,  0.15, 
 03/03/09, 19:00,  -9.0,  87,   0.6,   1.0,   1.8,   0.0,  0.00, 
 03/03/09, 20:00,  -9.2,  87,   0.6,   1.0,   1.7,   0.0,  0.00, 
 03/03/09, 21:00, -10.1,  88,   0.6,   1.0,   1.8,   0.0,  0.00, 
 03/03/09, 22:00, -10.8,  90,   0.6,   1.0,   1.8,   0.5,  0.00, 
 03/03/09, 23:00, -11.1,  88,   0.6,   1.0,   1.8,   0.0,  0.00, 
 03/03/10, 00:00, -10.3,  88,   0.6,   1.0,   1.8,   0.0,  0.00, 
 03/03/10, 01:00,  -9.8,  90,   0.6,   0.9,   1.7,   0.0,  0.00, 
 03/03/10, 02:00, -11.5,  90,   0.6,   1.0,   1.8,   0.0,  0.00, 
 03/03/10, 03:00, -11.8,  87,   0.6,   1.0,   1.8,   0.0,  0.00, 
 03/03/10, 04:00, -11.8,  86,   0.6,   1.0,   1.8,   0.0,  0.00, 
 03/03/10, 05:00, -10.9,  82,   0.6,   1.0,   1.8,   0.0,  0.00, 
 03/03/10, 06:00, -11.5,  86,   0.6,   1.0,   1.7,   0.0,  0.00, 
 03/03/10, 07:00, -11.0,  86,   0.6,   1.0,   1.8,   0.0,  0.02, 
 03/03/10, 08:00,  -8.9,  83,   0.6,   1.0,   1.7,   0.0,  0.67, 
 03/03/10, 09:00,  -7.4,  76,   0.6,   1.0,   1.7,   0.0,  1.03, 
 03/03/10, 10:00,  -6.8,  81,   0.6,   1.0,   1.8,   0.0,  0.74, 
 03/03/10, 11:00,  -5.9,  78,   0.6,   1.0,   1.8,   0.0,  1.22, 
 03/03/10, 12:00,  -6.1,  84,   0.6,   1.0,   1.7,   0.0,  0.97, 
 03/03/10, 13:00,  -6.2,  82,   0.6,   1.0,   1.8,   0.0,  0.74, 
 03/03/10, 14:00,  -5.9,  82,   0.6,   1.0,   1.8,   0.0,  0.66, 
 03/03/10, 15:00,  -6.0,  82,   0.6,   1.0,   1.7,   0.0,  0.51, 
 03/03/10, 16:00,  -6.5,  84,   0.6,   1.0,   1.7,   0.0,  0.33, 
 03/03/10, 17:00,  -7.0,  84,   0.6,   1.0,   1.7,   0.0,  0.16, 
 03/03/10, 18:00,  -7.7,  86,   0.6,   1.0,   1.7,   0.0,  0.02, 
 03/03/10, 19:00,  -8.3,  88,   0.6,   1.0,   1.8,   0.0,  0.00, 
 03/03/10, 20:00,  -8.6,  89,   0.6,   1.0,   1.7,   0.0,  0.00, 
 03/03/10, 21:00,  -9.2,  87,   0.6,   1.0,   1.8,   0.0,  0.00, 
 03/03/10, 22:00, -10.1,  87,   0.6,   1.0,   1.7,   0.0,  0.00, 
 03/03/10, 23:00, -11.0,  87,   0.6,   1.0,   1.7,   0.0,  0.00, 
 03/03/11, 00:00, -11.2,  88,   0.5,   1.0,   1.7,   0.0,  0.00, 
 03/03/11, 01:00, -10.8,  88,   0.6,   1.0,   1.8,   0.0,  0.00, 
 03/03/11, 02:00, -11.2,  90,   0.6,   1.0,   1.7,   0.0,  0.00, 
 03/03/11, 03:00, -10.6,  90,   0.5,   1.0,   1.7,   0.0,  0.00, 
 03/03/11, 04:00, -10.1,  92,   0.5,   1.0,   1.7,   0.0,  0.00, 
 03/03/11, 05:00, -10.5,  89,   0.6,   1.0,   1.7,   0.0,  0.00, 
 03/03/11, 06:00, -10.7,  89,   0.5,   1.0,   1.7,   0.0,  0.00, 
 03/03/11, 07:00, -10.7,  92,   0.5,   1.0,   1.7,   0.0,  0.00, 
 03/03/11, 08:00, -10.4,  89,   0.6,   1.0,   1.7,   0.0,  0.15, 
 03/03/11, 09:00,  -9.5,  89,   0.6,   1.0,   1.7,   0.0,  0.35, 
 03/03/11, 10:00,  -8.9,  83,   0.5,   1.0,   1.7,   0.0,  0.61, 
 03/03/11, 11:00,  -8.0,  79,   0.5,   1.0,   1.7,   0.5,  0.90, 
 03/03/11, 12:00,  -6.2,  68,   0.6,   1.0,   1.7,   6.0,  1.24, 
 03/03/11, 13:00,  -6.8,  73,   0.6,   1.0,   1.8,   0.0,  0.96, 
 03/03/11, 14:00,  -4.9,  66,   0.6,   1.0,   1.8,   0.0,  1.31, 
 03/03/11, 15:00,  -5.8,  71,   0.6,   1.0,   1.8,   0.5,  1.63, 
 03/03/11, 16:00,  -7.4,  73,   0.6,   1.0,   1.7,   0.0,  1.36, 
 03/03/11, 17:00,  -7.7,  72,   0.6,   1.0,   1.8,   0.0,  1.23, 
 03/03/11, 18:00,  -9.3,  74,   0.6,   1.0,   1.8,   0.0,  0.35, 
 03/03/11, 19:00,  -9.9,  77,   0.6,   1.0,   1.7,   0.0,  0.00, 
 03/03/11, 20:00, -11.3,  78,   0.6,   1.0,   1.7,   0.0,  0.00, 
 03/03/11, 21:00, -11.4,  76,   0.6,   1.0,   1.7,   0.0,  0.00, 
 03/03/11, 22:00,  -9.7,  70,   0.6,   1.0,   1.7,   0.0,  0.00, 
 03/03/11, 23:00, -10.0,  83,   0.6,   1.0,   1.7,   0.0,  0.00, 
 03/03/12, 00:00, -10.4,  80,   0.6,   1.0,   1.7,   0.0,  0.00, 
 03/03/12, 01:00,  -9.8,  75,   0.6,   1.0,   1.7,   0.0,  0.00, 
 03/03/12, 02:00, -10.0,  86,   0.5,   1.0,   1.7,   0.0,  0.00, 
 03/03/12, 03:00, -10.6,  88,   0.6,   1.0,   1.7,   0.0,  0.00, 
 03/03/12, 04:00, -10.8,  87,   0.6,   1.0,   1.7,   0.0,  0.00, 
 03/03/12, 05:00, -11.0,  87,   0.5,   1.0,   1.7,   0.0,  0.00, 
 03/03/12, 06:00, -10.4,  78,   0.5,   1.0,   1.7,   0.0,  0.00, 
 03/03/12, 07:00, -10.0,  79,   0.5,   1.0,   1.7,   0.0,  0.07, 
 03/03/12, 08:00,  -8.6,  79,   0.5,   1.0,   1.7,   0.0,  0.59, 
 03/03/12, 09:00,  -8.2,  85,   0.6,   1.0,   1.7,   0.0,  0.95, 
 03/03/12, 10:00,  -7.5,  84,   0.6,   1.0,   1.7,   0.0,  1.17, 
 03/03/12, 11:00,  -5.9,  77,   0.6,   1.0,   1.8,   0.0,  1.28, 
 03/03/12, 12:00,  -4.7,  74,   0.6,   1.0,   1.8,   0.0,  1.43, 
 03/03/12, 13:00,  -3.5,  71,   0.6,   1.0,   1.8,   0.0,  1.74, 
 03/03/12, 14:00,  -3.8,  71,   0.6,   1.0,   1.8,   0.0,  2.38, 
 03/03/12, 15:00,  -3.3,  62,   0.6,   0.9,   1.7,   0.0,  2.64, 
 03/03/12, 16:00,  -4.2,  67,   0.6,   1.0,   1.8,   0.0,  2.03, 
 03/03/12, 17:00,  -5.1,  70,   0.6,   1.0,   1.8,   0.0,  1.05, 
 03/03/12, 18:00,  -6.5,  79,   0.6,   1.0,   1.8,   0.0,  0.23, 
 03/03/12, 19:00,  -8.1,  87,   0.6,   1.0,   1.8,   0.0,  0.00, 
 03/03/12, 20:00,  -8.4,  92,   0.6,   0.9,   1.7,   0.0,  0.00, 
 03/03/12, 21:00,  -9.5,  90,   0.6,   0.9,   1.7,   0.0,  0.00, 
 03/03/12, 22:00, -10.3,  89,   0.6,   0.9,   1.7,   0.0,  0.00, 
 03/03/12, 23:00,  -8.3,  87,   0.6,   0.9,   1.7,   0.5,  0.00, 
 03/03/13, 00:00,  -9.5,  79,   0.6,   0.9,   1.7,   0.0,  0.00, 
 03/03/13, 01:00,  -8.1,  61,   0.5,   0.9,   1.7,   0.0,  0.00, 
 03/03/13, 02:00,  -7.3,  50,   0.6,   0.9,   1.7,   0.0,  0.00, 
 03/03/13, 03:00, -11.5,  81,   0.6,   0.9,   1.7,   0.0,  0.00, 
 03/03/13, 04:00, -12.0,  88,   0.5,   0.9,   1.7,   0.0,  0.00, 
 03/03/13, 05:00, -11.3,  81,   0.5,   0.9,   1.7,   0.0,  0.00, 
 03/03/13, 06:00, -11.2,  81,   0.5,   0.9,   1.7,   0.0,  0.00, 
 03/03/13, 07:00, -10.1,  90,   0.5,   0.9,   1.7,   0.0,  0.11, 
 03/03/13, 08:00,  -8.5,  83,   0.6,   0.9,   1.8,   0.0,  1.01, 
 03/03/13, 09:00,  -6.9,  75,   0.6,   0.9,   1.7,   0.0,  1.92, 
 03/03/13, 10:00,  -4.7,  68,   0.6,   0.9,   1.8,   0.0,  2.17, 
 03/03/13, 11:00,  -3.0,  64,   0.7,   1.0,   1.8,   0.0,  2.10, 
 03/03/13, 12:00,  -1.7,  53,   0.7,   1.0,   1.9,   0.0,  2.02, 
 03/03/13, 13:00,  -1.6,  43,   0.7,   1.0,   1.9,   0.0,  2.60, 
 03/03/13, 14:00,  -1.1,  29,   0.7,   1.0,   2.0,   0.0,  2.91, 
 03/03/13, 15:00,  -2.2,  56,   0.7,   1.0,   1.9,   0.0,  2.49, 
 03/03/13, 16:00,  -3.2,  61,   0.7,   1.0,   1.9,   0.0,  1.74, 
 03/03/13, 17:00,  -4.0,  68,   0.7,   1.0,   1.9,   0.0,  0.88, 
 03/03/13, 18:00,  -5.3,  72,   0.7,   1.0,   1.9,   0.0,  0.19, 
 03/03/13, 19:00,  -6.5,  82,   0.7,   1.0,   1.9,   0.0,  0.00, 
 03/03/13, 20:00,  -6.3,  84,   0.7,   1.0,   1.8,   0.0,  0.00, 
 03/03/13, 21:00,  -8.1,  89,   0.6,   1.0,   1.8,   0.0,  0.00, 
 03/03/13, 22:00,  -8.6,  87,   0.6,   1.0,   1.8,   0.0,  0.00, 
 03/03/13, 23:00,  -9.3,  88,   0.6,   1.0,   1.8,   0.0,  0.00, 
 03/03/14, 00:00,  -7.3,  80,   0.6,   1.0,   1.8,   0.0,  0.00, 
 03/03/14, 01:00,  -7.3,  64,   0.6,   1.0,   1.8,   0.0,  0.00, 
 03/03/14, 02:00,  -7.1,  66,   0.6,   0.9,   1.8,   0.0,  0.00, 
 03/03/14, 03:00,  -8.0,  60,   0.6,   0.9,   1.8,   0.0,  0.00, 
 03/03/14, 04:00,  -6.6,  38,   0.6,   1.0,   1.8,   0.0,  0.00, 
 03/03/14, 05:00,  -8.9,  57,   0.6,   0.9,   1.8,   0.0,  0.00, 
 03/03/14, 06:00,  -9.5,  57,   0.6,   0.9,   1.8,   0.0,  0.00, 
 03/03/14, 07:00,  -8.2,  51,   0.6,   1.0,   1.8,   0.0,  0.10, 
 03/03/14, 08:00,  -6.4,  42,   0.6,   1.0,   1.8,   0.0,  0.81, 
 03/03/14, 09:00,  -4.3,  42,   0.6,   1.0,   1.8,   0.0,  1.63, 
 03/03/14, 10:00,  -0.7,  44,   0.6,   0.9,   1.8,   0.0,  2.28, 
 03/03/14, 11:00,   0.1,  45,   0.6,   1.0,   1.8,   0.0,  2.76, 
 03/03/14, 12:00,   1.6,  39,   0.6,   1.0,   1.8,   0.0,  2.96, 
 03/03/14, 13:00,   1.5,  37,   0.6,   1.0,   1.8,   0.0,  3.01, 
 03/03/14, 14:00,   2.7,  32,   0.6,   1.0,   1.8,   0.0,  2.52, 
 03/03/14, 15:00,   2.4,  28,   0.6,   1.0,   1.8,   0.0,  2.13, 
 03/03/14, 16:00,   2.1,  36,   0.6,   1.0,   1.8,   0.0,  1.64, 
 03/03/14, 17:00,   1.2,  42,   0.6,   1.0,   1.8,   0.0,  0.88, 
 03/03/14, 18:00,  -1.4,  58,   0.6,   1.0,   1.8,   0.0,  0.16, 
 03/03/14, 19:00,  -2.4,  67,   0.6,   1.0,   1.8,   0.0,  0.00, 
 03/03/14, 20:00,  -2.5,  65,   0.6,   1.0,   1.8,   0.0,  0.00, 
 03/03/14, 21:00,  -2.0,  54,   0.6,   1.0,   1.8,   0.0,  0.00, 
 03/03/14, 22:00,  -2.0,  49,   0.6,   1.0,   1.8,   0.0,  0.00, 
 03/03/14, 23:00,  -2.4,  54,   0.6,   1.0,   1.8,   0.0,  0.00, 
 03/03/15, 00:00,  -2.0,  49,   0.6,   1.0,   1.8,   0.0,  0.00, 
 03/03/15, 01:00,  -1.7,  46,   0.6,   1.0,   1.8,   0.0,  0.00, 
 03/03/15, 02:00,  -2.4,  53,   0.6,   1.0,   1.8,   0.0,  0.00, 
 03/03/15, 03:00,  -1.9,  43,   0.6,   1.0,   1.8,   0.0,  0.00, 
 03/03/15, 04:00,  -2.5,  56,   0.6,   1.0,   1.8,   0.0,  0.00, 
 03/03/15, 05:00,  -1.2,  32,   0.6,   1.0,   1.8,   0.0,  0.00, 
 03/03/15, 06:00,  -1.0,  32,   0.6,   1.0,   1.8,   0.0,  0.00, 
 03/03/15, 07:00,  -1.9,  52,   0.6,   1.0,   1.8,   0.0,  0.01, 
 03/03/15, 08:00,  -1.6,  63,   0.6,   0.9,   1.8,   0.0,  0.19, 
 03/03/15, 09:00,  -2.0,  75,   0.6,   1.0,   1.8,   0.0,  0.42, 
 03/03/15, 10:00,  -2.3,  90,   0.6,   0.9,   1.8,   0.0,  0.70, 
 03/03/15, 11:00,  -0.9,  91,   0.6,   1.0,   1.8,   0.0,  1.28, 
 03/03/15, 12:00,  -0.3,  79,   0.6,   1.0,   1.8,   0.0,  1.37, 
 03/03/15, 13:00,  -0.1,  82,   0.6,   1.0,   1.8,   0.0,  0.93, 
 03/03/15, 14:00,  -0.4,  85,   0.6,   0.9,   1.8,   0.0,  0.64, 
 03/03/15, 15:00,   0.6,  82,   0.6,   1.0,   1.8,   0.0,  0.63, 
 03/03/15, 16:00,   0.9,  75,   0.6,   0.9,   1.8,   0.0,  0.98, 
 03/03/15, 17:00,   0.4,  77,   0.6,   1.0,   1.8,   0.0,  0.51, 
 03/03/15, 18:00,  -1.1,  82,   0.6,   0.9,   1.8,   0.0,  0.18, 
 03/03/15, 19:00,  -2.4,  90,   0.6,   1.0,   1.8,   0.0,  0.00, 
 03/03/15, 20:00,  -2.9,  92,   0.6,   1.0,   1.8,   0.0,  0.00, 
 03/03/15, 21:00,  -3.3,  95,   0.6,   0.9,   1.8,   0.0,  0.00, 
 03/03/15, 22:00,  -3.6,  95,   0.6,   0.9,   1.8,   0.0,  0.00, 
 03/03/15, 23:00,  -3.4,  98,   0.6,   0.9,   1.8,   0.0,  0.00, 
 03/03/16, 00:00,  -3.7,  99,   0.6,   0.9,   1.8,   0.0,  0.00, 
 03/03/16, 01:00,  -4.3,  96,   0.6,   0.9,   1.8,   0.0,  0.00, 